SL-16 DEB, 22575

Orbit data source: Space-Track

SL-16 DEB, 22575 is space debris in LEO originally from a launch on Fri, 26 Mar 1993 UTC launched from the Tyuratam Missile And Space Complex (TTMTR). Debris objects in space refer to the collection of defunct objects orbiting the Earth. Examples of debris include non-operational satellites, rocket bodies, and fragments generated from explosions, collisions, or faulty payload assembly.

Loading next visibility...
Identifier
22575, 1993-016C
Orbit
LEO
Country
Flag of CISCIS
Related business
Manufacturer
Yuzhnoe
Mission
Spacecraft
Bus & Motor
SEP MOTOR COVER, Unknown motor
Mass
~0 kg wet, ~1 kg dry
Launch date (UTC)
1993-03-26 (33 years ago)
Launch vehicle
Unknown
Launch site
Tyuratam Missile And Space Complex (TTMTR)
Object type
Payload
Rocket body
Debris
Shape & HBR
Unknown shape, 0.1 m
Radar Cross Section
Small (<0.1 m²)

Expand to show TLE details & history
Last TLE update: 14 hours ago

TLE from 14 hours ago
0 SL-16 DEB
1 22575U 93016C   25302.42549838  .00000112  00000-0  14303-3 0  9993
2 22575  71.0077  28.5213 0203221 134.4170 311.7059 13.73334143632533
Epoch: 2025-10-29T10:12Z
TLE epoch observation values (Epoch: 2025-10-29T10:12:43.060Z)
Latitude
70.31031°
Longitude
-89.57242°
Altitude
901.366 km
Speed
7.457 km/s
True Right ascension
06h 46m 25s
True Declination
70° 12' 11"
Sunlit
Object was in daylight at epoch
Visualization orbit readout
Latitude
Unknown
Longitude
Unknown
Altitude
Unknown
Speed
Unknown
Apparent Right ascension
Unknown
Apparent Declination
Unknown
Sunlit
N/A
Visualization observer readout
Local Sidereal Time
19:43:35
Azimuth
Unknown
Elevation
Unknown
Doppler factor
Unknown
Orbital elements
Apogee altitude
1,135.236 km
Perigee altitude
835.943 km
Semi-major axis
7,363.726 km
Eccentricity
0.02032
Inclination
71.0077°
RAAN
28.5213°
Arg. of periapsis
134.417°
True anomaly
309.93775°
Mean anomaly
311.7059°
Eccentric anomaly
310.82481°
Mean motion
3.43476 °/min
Orbital period
104.81 mins
BSTAR
0.00014303
Loading maneuver chart data...
Computing Atmospheric mass density...
Loading historical data...
Loading historical data...
Loading historical data...
Loading historical data...
Loading historical data...
Loading historical data...
Loading historical data...

Documentation

Showing up to 5 results
|